| time (UTC) | temp F | wind direction | speed knots | gust knots | rain 1hr in | rain 24hr in | rain mn in | humidity % | barometer mb |
| 20260505004134 | 60 | 331 | 0.0 | 0.9 | 0.00 | 0.00 | 0.00 | 51 | 1009.8 |
| 20260505003633 | 61 | 334 | 0.0 | 0.9 | 0.00 | 0.00 | 0.00 | 51 | 1009.8 |
| 20260505003132 | 61 | 336 | 0.9 | 0.9 | 0.00 | 0.00 | 0.00 | 50 | 1009.8 |
| 20260505002632 | 62 | 324 | 0.0 | 0.9 | 0.00 | 0.00 | 0.00 | 49 | 1009.6 |
| 20260505002133 | 62 | 0.0 | 0.0 | 0.00 | 0.00 | 0.00 | 49 | 1009.4 | |
| 20260505001632 | 62 | 0.0 | 0.0 | 0.00 | 0.00 | 0.00 | 49 | 1009.4 | |
| 20260505001131 | 61 | 343 | 0.9 | 1.7 | 0.00 | 0.00 | 0.00 | 49 | 1009.4 |
| 20260505000630 | 62 | 332 | 0.0 | 0.9 | 0.00 | 0.00 | 0.00 | 49 | 1009.4 |
| 20260505000129 | 62 | 0.0 | 0.0 | 0.00 | 0.00 | 0.00 | 48 | 1009.3 | |
| 20260504235629 | 63 | 344 | 0.9 | 1.7 | 0.00 | 0.00 | 0.00 | 49 | 1009.1 |
| 20260504235130 | 63 | 337 | 0.9 | 0.9 | 0.00 | 0.00 | 0.00 | 48 | 1009.1 |
| 20260504234629 | 63 | 332 | 0.0 | 0.9 | 0.00 | 0.00 | 0.00 | 47 | 1009.1 |
| 20260504234128 | 64 | 0.0 | 0.0 | 0.00 | 0.00 | 0.00 | 46 | 1009.1 | |
| 20260504233629 | 64 | 326 | 0.0 | 0.9 | 0.00 | 0.00 | 0.00 | 46 | 1009.1 |
| 20260504233129 | 64 | 313 | 0.9 | 0.9 | 0.00 | 0.00 | 0.00 | 46 | 1008.7 |
| 20260504232628 | 64 | 347 | 0.9 | 1.7 | 0.00 | 0.00 | 0.00 | 46 | 1008.7 |
| 20260504232127 | 65 | 314 | 0.9 | 0.9 | 0.00 | 0.00 | 0.00 | 45 | 1008.7 |
| 20260504231626 | 65 | 318 | 0.9 | 1.7 | 0.00 | 0.00 | 0.00 | 45 | 1008.7 |
| 20260504231127 | 65 | 346 | 0.9 | 1.7 | 0.00 | 0.00 | 0.00 | 45 | 1008.7 |
| 20260504230627 | 65 | 330 | 0.0 | 1.7 | 0.00 | 0.00 | 0.00 | 45 | 1008.7 |
| 20260504230126 | 65 | 324 | 0.0 | 0.9 | 0.00 | 0.00 | 0.00 | 44 | 1008.7 |
| 20260504225625 | 65 | 320 | 0.0 | 0.9 | 0.00 | 0.00 | 0.00 | 44 | 1008.7 |
| 20260504225126 | 66 | 311 | 0.0 | 0.9 | 0.00 | 0.00 | 0.00 | 44 | 1008.4 |
| 20260504224625 | 66 | 97 | 0.9 | 2.6 | 0.00 | 0.00 | 0.00 | 44 | 1008.4 |
| 20260504224225 | 66 | 286 | 3.5 | 5.2 | 0.00 | 0.00 | 0.00 | 43 | 1008.4 |
| 20260504223625 | 66 | 297 | 2.6 | 5.2 | 0.00 | 0.00 | 0.00 | 44 | 1008.7 |
| 20260504223124 | 66 | 129 | 3.5 | 5.2 | 0.00 | 0.00 | 0.00 | 44 | 1008.4 |
| 20260504222624 | 67 | 350 | 1.7 | 1.7 | 0.00 | 0.00 | 0.00 | 43 | 1008.4 |
| 20260504222124 | 67 | 342 | 2.6 | 5.2 | 0.00 | 0.00 | 0.00 | 43 | 1008.4 |
| 20260504221623 | 66 | 337 | 0.9 | 1.7 | 0.00 | 0.00 | 0.00 | 42 | 1008.4 |
| 20260504221222 | 67 | 184 | 3.5 | 7.0 | 0.00 | 0.00 | 0.00 | 42 | 1008.2 |
| 20260504220724 | 66 | 314 | 3.5 | 5.2 | 0.00 | 0.00 | 0.00 | 43 | 1008.4 |
| 20260504220222 | 67 | 353 | 2.6 | 4.3 | 0.00 | 0.00 | 0.00 | 42 | 1008.0 |
| 20260504215621 | 68 | 332 | 2.6 | 4.3 | 0.00 | 0.00 | 0.00 | 41 | 1008.0 |
| 20260504215120 | 67 | 316 | 0.9 | 1.7 | 0.00 | 0.00 | 0.00 | 42 | 1008.2 |
| 20260504214622 | 68 | 306 | 4.3 | 6.1 | 0.00 | 0.00 | 0.00 | 41 | 1008.0 |
| 20260504214121 | 69 | 319 | 2.6 | 4.3 | 0.00 | 0.00 | 0.00 | 40 | 1008.0 |
| 20260504213219 | 68 | 342 | 4.3 | 6.1 | 0.00 | 0.00 | 0.00 | 41 | 1008.0 |
| 20260504212121 | 68 | 331 | 3.5 | 6.1 | 0.00 | 0.00 | 0.00 | 41 | 1008.4 |
| 20260504211619 | 68 | 355 | 7.8 | 12.2 | 0.00 | 0.00 | 0.00 | 41 | 1008.4 |
| 20260504211118 | 68 | 306 | 1.7 | 2.6 | 0.00 | 0.00 | 0.00 | 41 | 1008.4 |
| 20260504210619 | 67 | 309 | 4.3 | 8.7 | 0.00 | 0.00 | 0.00 | 42 | 1008.6 |
| 20260504210118 | 68 | 321 | 3.5 | 7.8 | 0.00 | 0.00 | 0.00 | 42 | 1008.6 |
| 20260504205618 | 68 | 12 | 0.9 | 0.9 | 0.00 | 0.00 | 0.00 | 41 | 1008.4 |
| 20260504205117 | 67 | 312 | 7.0 | 11.3 | 0.00 | 0.00 | 0.00 | 42 | 1008.4 |
| 20260504204616 | 66 | 299 | 4.3 | 6.1 | 0.00 | 0.00 | 0.00 | 43 | 1008.7 |
| 20260504204117 | 67 | 323 | 5.2 | 8.7 | 0.00 | 0.00 | 0.00 | 42 | 1008.4 |
| 20260504203616 | 67 | 325 | 3.5 | 4.3 | 0.00 | 0.00 | 0.00 | 43 | 1008.7 |
| 20260504203120 | 67 | 159 | 7.0 | 12.2 | 0.00 | 0.00 | 0.00 | 42 | 1008.7 |
| 20260504202648 | 67 | 8 | 3.5 | 7.0 | 0.00 | 0.00 | 0.00 | 43 | 1008.4 |
| 20260504202149 | 66 | 330 | 4.3 | 6.1 | 0.00 | 0.00 | 0.00 | 42 | 1008.4 |
| 20260504201645 | 67 | 292 | 3.5 | 6.1 | 0.00 | 0.00 | 0.00 | 42 | 1008.6 |
| 20260504201144 | 66 | 303 | 5.2 | 6.1 | 0.00 | 0.00 | 0.00 | 43 | 1008.7 |
| 20260504200643 | 66 | 357 | 1.7 | 1.7 | 0.00 | 0.00 | 0.00 | 44 | 1008.7 |
| 20260504200145 | 67 | 350 | 2.6 | 6.1 | 0.00 | 0.00 | 0.00 | 42 | 1008.6 |
| 20260504195644 | 66 | 319 | 2.6 | 4.3 | 0.00 | 0.00 | 0.00 | 44 | 1008.7 |
| 20260504195143 | 68 | 2 | 4.3 | 5.2 | 0.00 | 0.00 | 0.00 | 42 | 1008.7 |
| 20260504194144 | 68 | 355 | 5.2 | 7.0 | 0.00 | 0.00 | 0.00 | 42 | 1008.6 |
| 20260504193142 | 66 | 292 | 4.3 | 8.7 | 0.00 | 0.00 | 0.00 | 42 | 1008.7 |
| 20260504192641 | 65 | 339 | 3.5 | 7.0 | 0.00 | 0.00 | 0.00 | 44 | 1008.7 |
| 20260504192142 | 66 | 335 | 3.5 | 7.8 | 0.00 | 0.00 | 0.00 | 43 | 1009.1 |
| 20260504191642 | 65 | 3 | 1.7 | 2.6 | 0.00 | 0.00 | 0.00 | 44 | 1008.7 |
| 20260504191141 | 65 | 302 | 4.3 | 8.7 | 0.00 | 0.00 | 0.00 | 43 | 1009.1 |
| 20260504190640 | 65 | 301 | 2.6 | 5.2 | 0.00 | 0.00 | 0.00 | 43 | 1008.7 |
| 20260504185640 | 65 | 304 | 7.0 | 12.2 | 0.00 | 0.00 | 0.00 | 43 | 1008.7 |
| 20260504185140 | 66 | 238 | 3.5 | 5.2 | 0.00 | 0.00 | 0.00 | 44 | 1008.7 |
| 20260504184639 | 64 | 298 | 3.5 | 6.1 | 0.00 | 0.00 | 0.00 | 44 | 1008.7 |
| 20260504184238 | 64 | 301 | 3.5 | 5.2 | 0.00 | 0.00 | 0.00 | 44 | 1008.7 |
| 20260504183639 | 66 | 331 | 6.1 | 11.3 | 0.00 | 0.00 | 0.00 | 43 | 1008.9 |
| 20260504183138 | 65 | 248 | 4.3 | 6.1 | 0.00 | 0.00 | 0.00 | 44 | 1008.7 |
| 20260504182637 | 65 | 308 | 2.6 | 4.3 | 0.00 | 0.00 | 0.00 | 44 | 1008.7 |
| 20260504182138 | 65 | 327 | 4.3 | 9.6 | 0.00 | 0.00 | 0.00 | 43 | 1009.1 |
| 20260504181638 | 65 | 355 | 3.5 | 6.1 | 0.00 | 0.00 | 0.00 | 44 | 1009.1 |
| 20260504181137 | 64 | 42 | 2.6 | 4.3 | 0.00 | 0.00 | 0.00 | 45 | 1008.7 |
| 20260504180701 | 64 | 338 | 3.5 | 5.2 | 0.00 | 0.00 | 0.00 | 44 | 1008.9 |
| 20260504180135 | 64 | 310 | 6.1 | 12.2 | 0.00 | 0.00 | 0.00 | 45 | 1009.1 |
| 20260504175638 | 64 | 336 | 7.8 | 11.3 | 0.00 | 0.00 | 0.00 | 45 | 1009.1 |
| 20260504175136 | 63 | 357 | 3.5 | 6.1 | 0.00 | 0.00 | 0.00 | 45 | 1009.1 |
| 20260504174635 | 63 | 337 | 1.7 | 2.6 | 0.00 | 0.00 | 0.00 | 45 | 1009.1 |
| 20260504173637 | 65 | 326 | 4.3 | 7.0 | 0.00 | 0.00 | 0.00 | 44 | 1009.1 |
| 20260504173134 | 66 | 335 | 4.3 | 7.0 | 0.00 | 0.00 | 0.00 | 42 | 1008.9 |
| 20260504172634 | 66 | 307 | 5.2 | 9.6 | 0.00 | 0.00 | 0.00 | 44 | 1009.1 |
| 20260504172135 | 65 | 339 | 4.3 | 8.7 | 0.00 | 0.00 | 0.00 | 43 | 1009.1 |
| 20260504171634 | 66 | 161 | 5.2 | 8.7 | 0.00 | 0.00 | 0.00 | 43 | 1009.3 |
| 20260504171133 | 66 | 210 | 6.1 | 9.6 | 0.00 | 0.00 | 0.00 | 43 | 1008.7 |
| 20260504170632 | 64 | 310 | 2.6 | 7.0 | 0.00 | 0.00 | 0.00 | 44 | 1009.1 |
| 20260504170131 | 65 | 335 | 9.6 | 13.9 | 0.00 | 0.00 | 0.00 | 43 | 1009.4 |
| 20260504160128 | 61 | 121 | 5.2 | 7.0 | 0.00 | 0.00 | 0.00 | 47 | 1009.8 |
| 20260504151126 | 63 | 290 | 2.6 | 5.2 | 0.00 | 0.00 | 0.00 | 45 | 1009.8 |
| 20260504150625 | 61 | 230 | 4.3 | 7.0 | 0.00 | 0.00 | 0.00 | 46 | 1009.8 |
| 20260504150224 | 61 | 326 | 2.6 | 2.6 | 0.00 | 0.00 | 0.00 | 45 | 1009.8 |
| 20260504141119 | 59 | 273 | 6.1 | 13.9 | 0.00 | 0.00 | 0.00 | 48 | 1010.3 |
| 20260504140619 | 61 | 257 | 4.3 | 7.8 | 0.00 | 0.00 | 0.00 | 45 | 1009.8 |
| 20260504140120 | 61 | 224 | 4.3 | 6.1 | 0.00 | 0.00 | 0.00 | 45 | 1009.8 |
| 20260504130745 | 53 | 301 | 1.7 | 2.6 | 0.00 | 0.00 | 0.00 | 61 | 1010.3 |
| 20260504130144 | 52 | 166 | 6.1 | 9.6 | 0.00 | 0.00 | 0.00 | 61 | 1010.5 |
| 20260504120140 | 47 | 171 | 2.6 | 4.3 | 0.00 | 0.00 | 0.00 | 71 | 1010.9 |
| 20260504110637 | 44 | 344 | 0.9 | 0.9 | 0.00 | 0.00 | 0.00 | 74 | 1010.5 |
| 20260504110136 | 44 | 330 | 0.9 | 1.7 | 0.00 | 0.00 | 0.00 | 74 | 1010.9 |
| 20260504100134 | 41 | 332 | 0.0 | 0.9 | 0.00 | 0.00 | 0.00 | 81 | 1010.5 |
| 20260504081625 | 45 | 324 | 0.9 | 1.7 | 0.00 | 0.00 | 0.00 | 82 | 1010.7 |
| 20260504081127 | 45 | 332 | 0.9 | 1.7 | 0.00 | 0.00 | 0.00 | 80 | 1010.9 |
| 20260504080626 | 46 | 312 | 0.9 | 1.7 | 0.00 | 0.00 | 0.00 | 80 | 1010.9 |
| 20260504080125 | 46 | 306 | 2.6 | 5.2 | 0.00 | 0.00 | 0.00 | 78 | 1010.9 |
| 20260504070121 | 44 | 0.0 | 0.0 | 0.00 | 0.00 | 0.00 | 79 | 1010.5 | |
| 20260504045744 | 41 | 0.0 | 0.0 | 0.00 | 0.00 | 0.00 | 67 | 1010.9 | |
| 20260504045142 | 41 | 317 | 0.9 | 1.7 | 0.00 | 0.00 | 0.00 | 65 | 1010.9 |
| 20260504044641 | 42 | 343 | 0.0 | 0.9 | 0.00 | 0.00 | 0.00 | 67 | 1011.2 |
| 20260504034138 | 39 | 332 | 0.9 | 1.7 | 0.00 | 0.00 | 0.00 | 68 | 1010.9 |
| 20260504033638 | 39 | 329 | 1.7 | 1.7 | 0.00 | 0.00 | 0.00 | 70 | 1010.9 |
| 20260504033238 | 39 | 324 | 1.7 | 1.7 | 0.00 | 0.00 | 0.00 | 70 | 1010.9 |
| 20260504032736 | 38 | 328 | 1.7 | 1.7 | 0.00 | 0.00 | 0.00 | 71 | 1010.9 |
| 20260504032137 | 37 | 332 | 0.9 | 0.9 | 0.00 | 0.00 | 0.00 | 71 | 1010.9 |
| 20260504031636 | 37 | 329 | 0.9 | 0.9 | 0.00 | 0.00 | 0.00 | 74 | 1010.9 |
| 20260504031135 | 37 | 325 | 0.9 | 0.9 | 0.00 | 0.00 | 0.00 | 72 | 1011.0 |
| 20260504030635 | 37 | 328 | 0.9 | 0.9 | 0.00 | 0.00 | 0.00 | 73 | 1010.9 |
| 20260504030141 | 36 | 332 | 0.9 | 0.9 | 0.00 | 0.00 | 0.00 | 75 | 1010.9 |
| 20260504025635 | 36 | 323 | 0.9 | 1.7 | 0.00 | 0.00 | 0.00 | 74 | 1011.0 |
| 20260504025234 | 36 | 332 | 0.9 | 1.7 | 0.00 | 0.00 | 0.00 | 75 | 1010.9 |
| 20260504024734 | 35 | 324 | 1.7 | 1.7 | 0.00 | 0.00 | 0.00 | 78 | 1011.2 |
| 20260504024134 | 35 | 321 | 1.7 | 1.7 | 0.00 | 0.00 | 0.00 | 77 | 1010.9 |
| 20260504023634 | 36 | 324 | 1.7 | 1.7 | 0.00 | 0.00 | 0.00 | 77 | 1011.2 |
| 20260504023133 | 35 | 323 | 1.7 | 1.7 | 0.00 | 0.00 | 0.00 | 77 | 1011.2 |
| 20260504022632 | 36 | 321 | 1.7 | 1.7 | 0.00 | 0.00 | 0.00 | 77 | 1011.2 |
| 20260504022132 | 35 | 319 | 1.7 | 1.7 | 0.00 | 0.00 | 0.00 | 76 | 1011.2 |
| 20260504021734 | 35 | 322 | 1.7 | 1.7 | 0.00 | 0.00 | 0.00 | 76 | 1011.2 |
| 20260504021232 | 35 | 321 | 1.7 | 1.7 | 0.00 | 0.00 | 0.00 | 77 | 1011.2 |
| 20260504020631 | 36 | 324 | 1.7 | 1.7 | 0.00 | 0.00 | 0.00 | 77 | 1010.9 |
| 20260504020131 | 36 | 331 | 1.7 | 2.6 | 0.00 | 0.00 | 0.00 | 77 | 1011.2 |
| 20260504015230 | 36 | 326 | 1.7 | 1.7 | 0.00 | 0.00 | 0.00 | 77 | 1011.2 |
| 20260504014632 | 36 | 318 | 1.7 | 1.7 | 0.00 | 0.00 | 0.00 | 76 | 1010.9 |
| 20260504014129 | 36 | 324 | 1.7 | 1.7 | 0.00 | 0.00 | 0.00 | 76 | 1010.9 |
| 20260504013630 | 36 | 328 | 1.7 | 1.7 | 0.00 | 0.00 | 0.00 | 76 | 1011.0 |
| 20260504012628 | 36 | 321 | 1.7 | 1.7 | 0.00 | 0.00 | 0.00 | 75 | 1010.9 |
| 20260504012129 | 36 | 324 | 1.7 | 1.7 | 0.00 | 0.00 | 0.00 | 75 | 1010.9 |
| 20260504011628 | 37 | 323 | 1.7 | 1.7 | 0.00 | 0.00 | 0.00 | 75 | 1010.9 |
| 20260504011127 | 37 | 326 | 1.7 | 1.7 | 0.00 | 0.00 | 0.00 | 74 | 1010.5 |
| 20260504010627 | 37 | 326 | 1.7 | 1.7 | 0.00 | 0.00 | 0.00 | 74 | 1010.5 |
| 20260504010126 | 37 | 326 | 1.7 | 1.7 | 0.00 | 0.00 | 0.00 | 74 | 1010.5 |
| 20260504005625 | 37 | 324 | 1.7 | 1.7 | 0.00 | 0.00 | 0.00 | 73 | 1010.5 |
| 20260504005126 | 37 | 328 | 1.7 | 1.7 | 0.00 | 0.00 | 0.00 | 75 | 1010.3 |
| 20260504004625 | 38 | 325 | 1.7 | 1.7 | 0.00 | 0.00 | 0.00 | 74 | 1010.5 |